DW8824 Weather Reports


Display with metric or nautical units.
time (UTC)temp
F
wind
direction
speed
MPH
gust
MPH
rain 1hr
in
rain 24hr
in
rain mn
in
humidity
%
barometer
mb
20260508183904 72 148 2.0 8.0 0.02 0.02 0.02 90 1019.2
20260508183404 72 146 1.0 9.0 0.02 0.02 0.02 89 1019.1
20260508182904 73 147 3.0 12.0 0.02 0.02 0.02 89 1019.2
20260508182404 73 110 3.0 14.0 0.02 0.02 0.02 89 1019.3
20260508181904 73 153 5.0 16.0 0.02 0.02 0.02 89 1019.2
20260508181404 74 113 6.0 18.0 0.02 0.02 0.02 88 1019.2
20260508180904 74 74 2.0 10.0 0.02 0.02 0.02 88 1019.1
20260508175904 75 84 1.0 7.0 0.02 0.02 0.02 87 1018.9
20260508175404 75 103 4.0 9.0 0.01 0.01 0.01 86 1018.9
20260508174904 74 102 2.0 10.0 0.00 0.00 0.00 85 1019.0
20260508174404 74 169 0.0 0.0 0.00 0.00 0.00 85 1018.8
20260508173904 74 177 0.0 0.0 0.00 0.00 0.00 86 1018.8
20260508173404 74 164 0.0 0.0 0.00 0.00 0.00 86 1018.8
20260508172904 74 166 0.0 0.0 0.00 0.00 0.00 86 1018.8
20260508172404 74 172 0.0 0.0 0.00 0.00 0.00 85 1018.7
20260508171904 74 185 0.0 0.0 0.00 0.00 0.00 85 1018.7
20260508171404 74 160 0.0 0.0 0.00 0.00 0.00 84 1018.5
20260508170904 74 162 0.0 0.0 0.00 0.00 0.00 84 1018.6
20260508170404 75 202 0.0 0.0 0.00 0.00 0.00 83 1018.5
20260508165904 75 165 0.0 0.0 0.00 0.00 0.00 83 1018.6
20260508165405 75 165 0.0 0.0 0.00 0.00 0.00 83 1018.6
20260508164904 75 18 0.0 0.0 0.00 0.00 0.00 82 1018.5
20260508164404 75 186 0.0 2.0 0.00 0.00 0.00 83 1018.4
20260508163904 75 161 0.0 3.0 0.00 0.00 0.00 83 1018.5
20260508163403 74 165 1.0 5.0 0.00 0.00 0.00 83 1018.4
20260508162904 74 175 0.0 1.0 0.00 0.00 0.00 83 1018.4
20260508162404 74 181 1.0 5.0 0.00 0.00 0.00 83 1018.4
20260508161904 74 177 0.0 6.0 0.00 0.00 0.00 83 1018.3
20260508161404 74 180 0.0 0.0 0.00 0.00 0.00 83 1018.2
20260508160904 74 180 0.0 0.0 0.00 0.00 0.00 82 1018.2
20260508155904 74 180 0.0 0.0 0.00 0.00 0.00 82 1018.2
20260508154405 74 167 0.0 0.0 0.00 0.00 0.00 82 1018.0
20260508153904 75 166 0.0 0.0 0.00 0.00 0.00 82 1018.0
20260508153404 75 166 0.0 0.0 0.00 0.00 0.00 82 1017.9
20260508152905 75 166 0.0 0.0 0.00 0.00 0.00 81 1017.8
20260508152404 75 166 0.0 0.0 0.00 0.00 0.00 81 1017.8
20260508151904 76 166 0.0 0.0 0.00 0.00 0.00 80 1017.7
20260508150904 76 166 0.0 0.0 0.00 0.00 0.00 79 1017.6
20260508150404 76 138 0.0 0.0 0.00 0.00 0.00 79 1017.6
20260508145405 77 173 0.0 1.0 0.00 0.00 0.00 78 1017.4
20260508144905 77 122 0.0 0.0 0.00 0.00 0.00 78 1017.4
20260508144403 77 157 0.0 0.0 0.00 0.00 0.00 78 1017.3
20260508143904 77 80 0.0 0.0 0.00 0.00 0.00 77 1017.3
20260508143404 77 144 0.0 1.0 0.00 0.00 0.00 77 1017.2
20260508142904 77 103 0.0 0.0 0.00 0.00 0.00 77 1017.3
20260508142404 77 131 0.0 0.0 0.00 0.00 0.00 77 1017.2
20260508141905 77 80 1.0 8.0 0.00 0.00 0.00 77 1017.1
20260508141404 78 137 0.0 5.0 0.00 0.00 0.00 77 1017.2
20260508140404 78 19 0.0 0.0 0.00 0.00 0.00 77 1017.1
20260508135904 78 117 2.0 8.0 0.00 0.00 0.00 77 1017.0
20260508135404 78 142 0.0 5.0 0.00 0.00 0.00 77 1016.9
20260508134404 79 110 1.0 6.0 0.00 0.00 0.00 77 1016.9
20260508133904 79 118 1.0 7.0 0.00 0.00 0.00 77 1016.8
20260508133405 79 138 0.0 3.0 0.00 0.00 0.00 77 1016.9
20260508132904 79 120 0.0 7.0 0.00 0.00 0.00 77 1016.9
20260508132404 79 121 1.0 9.0 0.00 0.00 0.00 76 1016.9
20260508131904 79 106 2.0 9.0 0.00 0.00 0.00 76 1016.8
20260508131405 80 129 0.0 7.0 0.00 0.00 0.00 76 1016.8
20260508130905 80 83 0.0 7.0 0.00 0.00 0.00 76 1016.8
20260508130404 80 91 0.0 8.0 0.00 0.00 0.00 76 1016.7
20260508125904 80 108 3.0 10.0 0.00 0.00 0.00 76 1016.7
20260508125404 80 137 1.0 9.0 0.00 0.00 0.00 76 1016.6
20260508124405 80 107 0.0 9.0 0.00 0.00 0.00 76 1016.5
20260508123403 80 100 3.0 10.0 0.00 0.00 0.00 76 1016.4
20260508122904 80 107 2.0 12.0 0.00 0.00 0.00 76 1016.4
20260508122404 80 89 5.0 13.0 0.00 0.00 0.00 76 1016.5
20260508121904 80 109 1.0 13.0 0.00 0.00 0.00 76 1016.4
20260508121404 80 86 5.0 14.0 0.00 0.00 0.00 75 1016.4
20260508120904 81 99 6.0 12.0 0.00 0.00 0.00 74 1016.3
20260508115904 81 137 1.0 13.0 0.00 0.00 0.00 74 1016.2
20260508114904 81 105 3.0 12.0 0.00 0.00 0.00 72 1016.2
20260508114404 81 123 2.0 12.0 0.00 0.00 0.00 72 1016.2
20260508113904 81 105 4.0 12.0 0.00 0.00 0.00 72 1016.2
20260508113404 81 100 4.0 14.0 0.00 0.00 0.00 72 1016.2
20260508112904 81 110 5.0 16.0 0.00 0.00 0.00 71 1016.2
20260508112404 81 95 2.0 13.0 0.00 0.00 0.00 72 1016.2
20260508111904 81 106 7.0 16.0 0.00 0.00 0.00 71 1016.2
20260508111404 82 69 5.0 18.0 0.00 0.00 0.00 71 1016.1
20260508110904 82 121 4.0 12.0 0.00 0.00 0.00 71 1016.1
20260508110404 82 109 2.0 10.0 0.00 0.00 0.00 70 1016.1
20260508105904 82 82 3.0 18.0 0.00 0.00 0.00 70 1016.1
20260508105404 82 96 0.0 10.0 0.00 0.00 0.00 71 1016.1
20260508104904 82 78 9.0 13.0 0.00 0.00 0.00 69 1016.0
20260508104404 82 122 3.0 9.0 0.00 0.00 0.00 70 1016.1
20260508103904 82 105 3.0 15.0 0.00 0.00 0.00 68 1016.1
20260508103405 82 102 3.0 15.0 0.00 0.00 0.00 68 1016.1
20260508102904 82 92 6.0 15.0 0.00 0.00 0.00 68 1016.2
20260508101904 82 84 2.0 13.0 0.00 0.00 0.00 71 1016.2
20260508101403 82 88 5.0 14.0 0.00 0.00 0.00 72 1016.2
20260508100904 82 129 5.0 15.0 0.00 0.00 0.00 72 1016.2
20260508100404 82 74 6.0 20.0 0.00 0.00 0.00 71 1016.3
20260508095904 82 87 9.0 16.0 0.00 0.00 0.00 71 1016.2
20260508095405 82 69 7.0 16.0 0.00 0.00 0.00 69 1016.3
20260508094904 82 63 9.0 17.0 0.00 0.00 0.00 70 1016.3
20260508094404 82 66 3.0 15.0 0.00 0.00 0.00 71 1016.3
20260508093904 83 98 2.0 13.0 0.00 0.00 0.00 72 1016.3
20260508092904 82 84 3.0 12.0 0.00 0.00 0.00 72 1016.4
20260508092405 83 84 3.0 14.0 0.00 0.00 0.00 71 1016.4
20260508091904 82 126 1.0 12.0 0.00 0.00 0.00 72 1016.5
20260508091404 82 141 6.0 18.0 0.00 0.00 0.00 71 1016.5
20260508090904 82 100 8.0 15.0 0.00 0.00 0.00 72 1016.5
20260508090404 82 82 2.0 15.0 0.00 0.00 0.00 73 1016.5
20260508085904 82 82 6.0 17.0 0.00 0.00 0.00 73 1016.5
20260508085405 82 118 5.0 17.0 0.00 0.00 0.00 71 1016.7
20260508084904 82 135 2.0 16.0 0.00 0.00 0.00 71 1016.8
20260508084404 82 84 5.0 14.0 0.00 0.00 0.00 70 1016.9
20260508083904 82 110 3.0 12.0 0.00 0.00 0.00 72 1016.9
20260508082905 82 97 5.0 16.0 0.00 0.00 0.00 73 1016.9
20260508082404 82 94 3.0 17.0 0.00 0.00 0.00 72 1017.0
20260508081905 81 93 9.0 15.0 0.00 0.00 0.00 71 1017.2
20260508081403 81 99 2.0 13.0 0.00 0.00 0.00 75 1017.1
20260508080903 81 101 2.0 12.0 0.00 0.00 0.00 75 1017.1
20260508080404 81 131 0.0 8.0 0.00 0.00 0.00 76 1017.2
20260508075904 80 86 5.0 17.0 0.00 0.00 0.00 77 1017.3
20260508075404 81 59 3.0 15.0 0.00 0.00 0.00 76 1017.3
20260508074904 82 87 5.0 14.0 0.00 0.00 0.00 74 1017.4
20260508074405 82 73 1.0 12.0 0.00 0.00 0.00 74 1017.4
20260508073904 82 93 5.0 16.0 0.00 0.00 0.00 73 1017.5
20260508073404 81 81 7.0 16.0 0.00 0.00 0.00 73 1017.5
20260508072904 82 75 5.0 15.0 0.00 0.00 0.00 72 1017.5
20260508072404 82 68 5.0 17.0 0.00 0.00 0.00 72 1017.6
20260508071904 82 104 4.0 17.0 0.00 0.00 0.00 72 1017.7
20260508071404 82 66 5.0 16.0 0.00 0.00 0.00 72 1017.8
20260508070904 82 76 7.0 14.0 0.00 0.00 0.00 72 1017.9
20260508070404 82 74 5.0 15.0 0.00 0.00 0.00 71 1017.8
20260508065904 82 93 4.0 16.0 0.00 0.00 0.00 71 1017.9
20260508065403 82 87 5.0 18.0 0.00 0.00 0.00 70 1018.1
20260508064904 82 83 3.0 15.0 0.00 0.00 0.00 72 1018.1
20260508064403 82 79 6.0 14.0 0.00 0.00 0.00 71 1018.1
20260508063904 82 102 6.0 15.0 0.00 0.00 0.00 73 1018.3
20260508063404 82 122 2.0 15.0 0.00 0.00 0.00 74 1018.3
20260508062405 81 109 6.0 17.0 0.00 0.00 0.00 74 1018.3
20260508061904 81 139 8.0 16.0 0.00 0.00 0.00 75 1018.3
20260508061404 81 137 3.0 12.0 0.00 0.00 0.00 75 1018.3
20260508060904 81 88 6.0 13.0 0.00 0.00 0.00 74 1018.3
20260508060404 82 88 4.0 13.0 0.00 0.00 0.00 73 1018.2
20260508055905 82 106 6.0 13.0 0.00 0.00 0.00 74 1018.3
20260508055404 81 98 5.0 14.0 0.00 0.00 0.00 74 1018.2
20260508054904 81 84 6.0 16.0 0.00 0.00 0.00 74 1018.2
20260508054404 81 84 6.0 15.0 0.00 0.00 0.00 73 1018.3
20260508053905 81 102 4.0 13.0 0.00 0.00 0.00 73 1018.3
20260508053404 81 88 7.0 16.0 0.00 0.00 0.00 72 1018.3
20260508052904 81 68 9.0 18.0 0.00 0.00 0.00 72 1018.3
20260508052405 81 77 5.0 18.0 0.00 0.00 0.00 69 1018.3
20260508051904 81 78 5.0 12.0 0.00 0.00 0.00 70 1018.2
20260508051404 81 103 7.0 17.0 0.00 0.00 0.00 71 1018.2
20260508050904 80 73 7.0 14.0 0.00 0.00 0.00 72 1018.1
20260508050404 79 93 5.0 12.0 0.00 0.00 0.00 77 1018.1
20260508045404 79 92 5.0 9.0 0.00 0.00 0.00 78 1018.0
20260508044904 78 126 2.0 7.0 0.00 0.00 0.00 80 1017.9
20260508044404 77 116 3.0 7.0 0.00 0.00 0.00 82 1017.9
20260508043904 77 105 2.0 10.0 0.00 0.00 0.00 83 1017.9
20260508043403 76 156 0.0 6.0 0.00 0.00 0.00 84 1017.9
20260508042904 75 189 0.0 6.0 0.00 0.00 0.00 85 1017.8
20260508041903 75 176 1.0 6.0 0.00 0.00 0.00 84 1017.8
20260508041404 75 184 1.0 6.0 0.00 0.00 0.00 84 1017.8
20260508040904 75 141 2.0 9.0 0.00 0.00 0.00 83 1017.8
20260508040404 75 125 5.0 12.0 0.00 0.00 0.00 82 1017.8
20260508034904 77 171 5.0 10.0 0.00 0.00 0.00 79 1017.7
20260508034404 78 123 4.0 12.0 0.00 0.00 0.00 77 1017.7
20260508033904 78 101 3.0 10.0 0.00 0.00 0.00 74 1017.6
20260508032904 77 87 5.0 9.0 0.00 0.00 0.00 74 1017.4
20260508032404 77 94 3.0 9.0 0.00 0.00 0.00 75 1017.4
20260508031904 77 94 1.0 7.0 0.00 0.00 0.00 77 1017.4
20260508031404 76 84 0.0 3.0 0.00 0.00 0.00 77 1017.3
20260508030904 76 72 2.0 9.0 0.00 0.00 0.00 78 1017.2
20260508025904 76 118 0.0 0.0 0.00 0.00 0.00 79 1017.3
20260508025404 76 88 1.0 7.0 0.00 0.00 0.00 79 1017.2
20260508024904 76 118 1.0 6.0 0.00 0.00 0.00 79 1017.2
20260508023904 76 106 0.0 3.0 0.00 0.00 0.00 79 1017.1
20260508023404 76 96 0.0 0.0 0.00 0.00 0.00 79 1017.1
20260508022904 76 69 0.0 0.0 0.00 0.00 0.00 78 1017.0
20260508022404 76 31 1.0 5.0 0.00 0.00 0.00 78 1017.0
20260508021404 76 70 1.0 3.0 0.00 0.00 0.00 78 1016.9
20260508020404 76 124 1.0 3.0 0.00 0.00 0.00 78 1016.8
20260508015403 76 93 2.0 7.0 0.00 0.00 0.00 78 1016.7
20260508014905 76 135 0.0 3.0 0.00 0.00 0.00 78 1016.7
20260508014404 76 91 1.0 7.0 0.00 0.00 0.00 78 1016.6
20260508013904 76 119 3.0 10.0 0.00 0.00 0.00 78 1016.6
20260508013404 76 79 2.0 7.0 0.00 0.00 0.00 78 1016.6
20260508012904 76 106 2.0 9.0 0.00 0.00 0.00 78 1016.5
20260508012404 77 121 1.0 9.0 0.00 0.00 0.00 77 1016.5
20260508011904 77 98 2.0 7.0 0.00 0.00 0.00 77 1016.4
20260508011405 76 92 2.0 10.0 0.00 0.00 0.00 78 1016.4
20260508005904 76 100 1.0 7.0 0.00 0.00 0.00 80 1016.2
20260508004404 76 97 3.0 8.0 0.00 0.00 0.00 79 1016.2
20260508003405 76 115 2.0 9.0 0.00 0.00 0.00 79 1016.2
20260508002904 76 84 2.0 7.0 0.00 0.00 0.00 79 1016.2
20260508002404 76 108 2.0 8.0 0.00 0.00 0.00 79 1016.3
20260508001905 76 103 0.0 3.0 0.00 0.00 0.00 80 1016.2
20260508001404 76 105 1.0 6.0 0.00 0.00 0.00 80 1016.2
20260508000904 76 84 1.0 3.0 0.00 0.00 0.00 80 1016.2
20260508000405 76 93 0.0 3.0 0.00 0.00 0.00 79 1016.2
20260507235904 76 117 0.0 3.0 0.00 0.00 0.00 78 1016.3
20260507234904 76 85 0.0 7.0 0.00 0.00 0.00 78 1016.3
20260507234403 76 107 2.0 9.0 0.00 0.00 0.00 78 1016.3
20260507233904 76 99 2.0 8.0 0.00 0.00 0.00 78 1016.3
20260507232904 76 110 1.0 6.0 0.00 0.00 0.00 78 1016.4
20260507232404 76 75 1.0 7.0 0.00 0.00 0.00 78 1016.3
20260507231904 76 95 1.0 6.0 0.00 0.00 0.00 79 1016.5
20260507230904 76 78 2.0 10.0 0.00 0.00 0.00 79 1016.5
20260507225404 76 78 1.0 5.0 0.00 0.00 0.00 80 1016.6
20260507224904 75 92 0.0 3.0 0.00 0.00 0.00 80 1016.5
20260507224404 76 172 0.0 3.0 0.00 0.00 0.00 78 1016.5
20260507223904 76 4 0.0 3.0 0.00 0.00 0.00 78 1016.5
20260507223404 76 130 0.0 7.0 0.00 0.00 0.00 78 1016.5
20260507222904 76 121 0.0 9.0 0.00 0.00 0.00 78 1016.5
20260507222404 76 80 2.0 7.0 0.00 0.00 0.00 78 1016.5
20260507221904 76 95 2.0 9.0 0.00 0.00 0.00 79 1016.5
20260507221404 76 136 0.0 6.0 0.00 0.00 0.00 78 1016.6
20260507220904 76 130 1.0 9.0 0.00 0.00 0.00 78 1016.6
20260507220404 76 99 0.0 8.0 0.00 0.00 0.00 78 1016.6
20260507215904 76 103 1.0 8.0 0.00 0.00 0.00 77 1016.6
20260507215404 76 119 3.0 12.0 0.00 0.00 0.00 77 1016.7
20260507214905 76 98 1.0 12.0 0.00 0.00 0.00 79 1016.6
20260507214404 75 120 1.0 8.0 0.00 0.00 0.00 81 1016.7
20260507213904 75 112 1.0 6.0 0.00 0.00 0.00 82 1016.7
20260507213404 74 120 0.0 7.0 0.00 0.00 0.00 82 1016.8
20260507212905 74 146 1.0 6.0 0.00 0.00 0.00 82 1016.9
20260507212404 74 155 1.0 8.0 0.00 0.00 0.00 82 1016.9
20260507211904 74 163 1.0 7.0 0.00 0.00 0.00 83 1016.8
20260507210904 74 147 0.0 3.0 0.00 0.00 0.00 82 1016.9
20260507210404 74 133 0.0 7.0 0.00 0.00 0.00 82 1016.9
20260507205404 74 165 0.0 1.0 0.00 0.00 0.00 82 1017.0
20260507204904 74 173 0.0 0.0 0.00 0.00 0.00 82 1017.1
20260507204404 73 153 0.0 0.0 0.00 0.00 0.00 82 1017.1
20260507203904 73 148 0.0 0.0 0.00 0.00 0.00 83 1017.2
20260507202904 73 166 0.0 0.0 0.00 0.00 0.00 83 1017.2
20260507202404 73 162 0.0 1.0 0.00 0.00 0.00 83 1017.2
20260507201904 72 161 0.0 0.0 0.00 0.00 0.00 82 1017.3
20260507201404 72 175 0.0 0.0 0.00 0.00 0.00 82 1017.4
20260507200404 73 168 0.0 0.0 0.00 0.00 0.00 81 1017.4
20260507195905 73 167 0.0 0.0 0.00 0.00 0.00 81 1017.5
20260507195404 73 169 0.0 0.0 0.00 0.00 0.00 81 1017.5
20260507194904 73 163 0.0 0.0 0.00 0.00 0.00 80 1017.4
20260507194404 74 167 0.0 0.0 0.00 0.00 0.00 80 1017.5
20260507193404 74 170 1.0 6.0 0.00 0.00 0.00 78 1017.6
20260507192904 74 190 0.0 3.0 0.00 0.00 0.00 78 1017.5
20260507192405 75 172 0.0 2.0 0.00 0.00 0.00 78 1017.6
20260507191904 76 156 0.0 0.0 0.00 0.00 0.00 78 1017.6
20260507191404 76 150 0.0 7.0 0.00 0.00 0.00 78 1017.6
20260507190904 76 122 0.0 0.0 0.00 0.00 0.00 78 1017.6
20260507190404 76 142 0.0 3.0 0.00 0.00 0.00 77 1017.7
20260507185904 76 126 1.0 9.0 0.00 0.00 0.00 77 1017.7
20260507185404 76 117 2.0 7.0 0.00 0.00 0.00 77 1017.7
20260507184904 77 123 1.0 7.0 0.00 0.00 0.00 76 1017.7
20260507184404 77 112 1.0 9.0 0.00 0.00 0.00 76 1017.7